SKY MEXICO-1

Last updated on Sun Jun 21 2026 00:03:06 GMT+0000 (Coordinated Universal Time)

1 40664U 15026B 26171.37638374 -.00000239 00000+0 00000+0 0 9995 2 40664 0.0192 61.3246 0002160 44.3132 219.6461 1.00272203 40484
UTC large
Height (km)
Speed (km/s)
/
Latitude / Longitude
Inclination (degrees)
Orbital Period (minutes)
Azimuth
Elevation
Range (km)
Doppler Factor

Next 0 passes for location: London (51.5072 / 0.1276)

No passes found over London.
SKY MEXICO-1